Station THRO1 - 9063085 - Toledo, OH Image indicating link to RSS feed of recent meteorological observations for station THRO1


Conditions at THRO1 as of
(2:54 am EDT)
0654 GMT on 06/13/2024:
     

Click on the graph icon in the table below to see a time series plot of the last five days of that observation.

5-day plot - Wind Direction Wind Direction (WDIR): SW ( 220 deg true )
5-day plot - Wind Speed Wind Speed (WSPD): 7.0 kts
5-day plot - Wind Gust Wind Gust (GST): 13.0 kts
5-day plot - Atmospheric Pressure Atmospheric Pressure (PRES):29.87 in
5-day plot - Air Temperature Air Temperature (ATMP): 73.4 °F
5-day plot - Dew Point Dew Point (DEWP): 52.9 °F
5-day plot - Wind Speed at 10 Meters Wind Speed at 10 meters (WSPD10M): 7.8 kts
5-day plot - Wind Speed at 20 Meters Wind Speed at 20 meters (WSPD20M): 7.8 kts
5-day plot -  Wind Speed, Wind Gust and Atmospheric Pressure Combined plot of Wind Speed, Gust, and Air Pressure
NOS Water Level Observation Network Water Level
Previous observations
TIME
(EDT)
5-day plot - Wind Direction
WDIR
 
5-day plot - Wind Speed
WSPD
kts
5-day plot - Wind Gust
GST
kts
5-day plot - Wave Height
WVHT
ft
5-day plot - Dominant Wave Period
DPD
sec
5-day plot - Average Wave Period
APD
sec
5-day plot - Mean Wave Direction
MWD
 
5-day plot - Atmospheric Pressure
PRES
in
5-day plot - Pressure Tendency
PTDY
in
5-day plot - Air Temperature
ATMP
°F
5-day plot - Water Temperature
WTMP
°F
5-day plot - Dew Point
DEWP
°F
5-day plot - Salinity
SAL
psu
5-day plot - Visibility
VIS
nmi
5-day plot - Tide (above MLLW)
TIDE
ft
2024-06-13 02:48 am SW 7.0 13.0----29.87-------
2024-06-13 02:42 am SW 8.0 11.1----29.87-------
2024-06-13 02:30 am SW 6.0 11.1----29.87- 73.4- 52.9---
2024-06-13 02:24 am SW 6.0 13.0----29.87- 73.6- 52.3---
2024-06-13 02:18 am SW 8.0 12.0----29.87- 73.8- 52.2---
2024-06-13 02:12 amSSW 8.9 13.0----29.87- 73.9- 51.8---
2024-06-13 02:06 am SW 8.0 14.0----29.87- 74.1- 52.0---
2024-06-13 02:00 am SW 7.0 12.0----29.87+0.01------
2024-06-13 01:54 am SW 7.0 15.0----29.87-------
2024-06-13 01:48 am-------29.87- 74.5- 51.6---
2024-06-13 01:42 am-------29.87- 74.5- 51.4---
2024-06-13 01:36 am-------29.87- 74.8- 51.4---
2024-06-13 01:30 amSSW 8.0 14.0----29.87- 74.8- 51.6---
2024-06-13 01:24 amSSW 9.9 13.0----29.87- 74.8- 51.4---
2024-06-13 01:18 amSSW 9.9 15.0----29.87- 74.8- 51.3---
2024-06-13 01:12 amSSW 8.9 13.0----29.87- 75.0- 51.3---
2024-06-13 01:06 amSSW 11.1 14.0----29.87- 75.0- 51.1---
2024-06-13 01:00 am-------29.87- 75.0- 51.3---
2024-06-13 12:54 am-------29.87- 75.2- 51.8---
2024-06-13 12:48 amSSW 8.9 15.9----29.87- 75.2- 51.4---
2024-06-13 12:42 am SW 9.9 13.0----29.87- 75.2- 51.4---
2024-06-13 12:36 amSSW 8.9 15.0----29.87- 75.4- 51.6---
2024-06-13 12:30 am SW 8.9 15.0----29.87- 75.6- 51.8---
2024-06-13 12:24 am SW 9.9 18.1----29.87- 75.7- 51.4---
2024-06-13 12:18 am SW 8.0 18.1----29.87- 75.9- 51.8---
2024-06-13 12:12 amSSW 11.1 14.0----29.87- 76.3- 52.0---
2024-06-13 12:06 amSSW 8.0 12.0----29.86- 76.3- 52.9---
2024-06-13 12:00 amSSW 8.0 13.0----29.86- 76.5- 52.3---
2024-06-12 11:54 pmSSW 8.0 12.0----29.86- 76.5- 52.5---
2024-06-12 11:48 pmSSW 8.9 15.0----29.86-------
2024-06-12 11:42 pmSSW 8.0 15.9----29.86-------
2024-06-12 11:36 pm S 8.0 15.0----29.86-------
2024-06-12 11:30 pm S 9.9 15.0------------
2024-06-12 11:24 pm S 7.0 12.0------------
2024-06-12 11:18 pm S 7.0 11.1----29.86-------
2024-06-12 11:12 pm S 6.0 13.0----29.86-------
2024-06-12 11:06 pm S 6.0 12.0----29.86-------
2024-06-12 11:00 pmSSW 5.1 12.0----29.86+0.00 77.2- 54.9---
2024-06-12 10:54 pm S 5.1 9.9----29.86- 77.5- 55.2---
2024-06-12 10:48 pmSSW 8.0 12.0----29.86- 78.4- 53.2---
2024-06-12 10:42 pmSSW 7.0 13.0----29.86- 78.6- 53.2---
2024-06-12 10:36 pmSSW 6.0 14.0----29.86- 78.3- 54.0---
2024-06-12 10:30 pm S 7.0 12.0----29.86- 78.6- 53.6---
2024-06-12 10:24 pm S 5.1 12.0----29.86- 78.4- 54.7---
2024-06-12 10:18 pmSSW 6.0 12.0----29.86- 79.2- 53.4---
2024-06-12 10:12 pmSSW 7.0 9.9----29.86- 79.2- 53.4---
2024-06-12 10:06 pmSSW 6.0 11.1----29.86- 79.3- 53.8---
2024-06-12 10:00 pm S 6.0 11.1------------
2024-06-12 09:54 pmSSW 7.0 12.0------------
2024-06-12 09:48 pmSSW 7.0 11.1----29.86-------
2024-06-12 09:42 pmSSW 8.9 12.0----29.86-------
2024-06-12 09:36 pmSSW 8.9 13.0----29.86-------
2024-06-12 09:30 pmSSW 9.9 13.0----29.85- 80.4- 53.1---
2024-06-12 09:24 pmSSW 8.9 12.0----29.86- 80.8- 52.9---
2024-06-12 09:18 pmSSW 8.0 9.9----29.85-------
2024-06-12 09:12 pmSSW 7.0 12.0----29.85-------
2024-06-12 09:06 pmSSW 8.0 14.0----29.85-------
2024-06-12 09:00 pmSSW 5.1 12.0------------
2024-06-12 08:54 pmSSW 7.0 12.0------------
2024-06-12 08:48 pmSSW 7.0 12.0----29.85-------
2024-06-12 08:42 pmSSW 5.1 12.0----29.85-------
2024-06-12 08:36 pmSSW 5.1 8.0----29.85-------
2024-06-12 08:30 pm SW 5.1 11.1----29.85-------
2024-06-12 08:24 pmSSW 6.0 8.0----29.85-------
2024-06-12 08:18 pm SW 4.1 11.1----29.85- 83.5- 54.0---
2024-06-12 08:12 pm SW 6.0 8.9----29.85- 83.5- 53.8---
2024-06-12 08:06 pm SW 6.0 12.0----29.85- 84.0- 53.6---
2024-06-12 08:00 pmSSW 5.1 8.9----29.85-0.03------
2024-06-12 07:54 pm SW 4.1 8.9----29.85-------
2024-06-12 07:48 pm SW 6.0 8.9----29.86-------
2024-06-12 07:42 pmWSW 7.0 13.0----29.86-------
2024-06-12 07:36 pm SW 4.1 8.9----29.86-------
2024-06-12 07:30 pm SW 7.0 13.0----29.86- 85.8- 51.8---
2024-06-12 07:24 pm SW 6.0 11.1----29.86- 85.6- 52.3---
2024-06-12 07:00 pm SW 6.0 11.1----29.86-0.04------
2024-06-12 06:54 pm SW 5.1 9.9----29.86-------
2024-06-12 06:48 pm W 8.0 12.0----29.86-------
2024-06-12 06:42 pmWSW 8.9 13.0----29.86-------
2024-06-12 06:36 pmWSW 8.0 12.0----29.86-------
2024-06-12 06:30 pm SW 4.1 12.0----29.87- 86.5- 50.4---
2024-06-12 06:24 pmWSW 8.9 14.0----29.87- 86.4- 49.6---
2024-06-12 06:18 pmWSW 5.1 9.9----29.87-------
2024-06-12 06:12 pm SW 5.1 9.9----29.86-------
2024-06-12 06:06 pm SW 6.0 12.0----29.86-------
2024-06-12 06:00 pm-------29.86-0.05------
2024-06-12 05:54 pm-------29.86-------
2024-06-12 05:48 pmSSW 8.0 13.0----29.86-------
2024-06-12 05:42 pmSSW 9.9 15.0----29.87-------
2024-06-12 05:36 pmWSW 7.0 12.0----29.87-------
2024-06-12 05:30 pm-------29.87- 85.6- 50.9---
2024-06-12 05:24 pm-------29.87- 86.0- 50.4---
2024-06-12 05:18 pmSSW 6.0 12.0----29.87- 85.1- 51.3---
2024-06-12 05:12 pm SW 7.0 11.1----29.88- 85.5- 50.9---
2024-06-12 05:06 pmSSW 9.9 14.0----29.88- 85.1- 50.5---
2024-06-12 05:00 pmWSW 7.0 12.0----29.88-0.05------
2024-06-12 04:54 pm SW 6.0 14.0----29.88-------
2024-06-12 04:48 pm SW 8.0 12.0----29.88-------
2024-06-12 04:42 pmSSW 9.9 14.0----29.88-------
2024-06-12 04:36 pmWSW 6.0 9.9----29.88-------
2024-06-12 04:30 pm SW 7.0 11.1----29.88- 84.9-----
2024-06-12 04:24 pmSSW 8.9 13.0----29.88- 84.4-----
2024-06-12 04:18 pm SW 6.0 12.0----29.88- 84.4- 50.4---
2024-06-12 04:12 pmSSW 8.0 11.1----29.89- 84.0- 52.0---
2024-06-12 04:06 pmSSW 6.0 12.0----29.90- 84.2- 52.5---
2024-06-12 04:00 pm SW 8.0 14.0----29.90-0.04------
2024-06-12 03:54 pmSSW 8.9 12.0----29.90-------
2024-06-12 03:48 pm SW 5.1 8.0----29.90-------
2024-06-12 03:42 pm SW 5.1 12.0----29.91-------
2024-06-12 03:36 pm SW 7.0 12.0----29.91-------
2024-06-12 03:30 pm SW 5.1 11.1----29.91- 83.1- 51.3---
2024-06-12 03:24 pm SW 5.1 9.9----29.91- 83.5- 51.1---
2024-06-12 03:18 pm SW 5.1 11.1----29.91- 82.4- 50.5---
2024-06-12 03:12 pm SW 7.0 11.1----29.91- 82.2- 49.5---
2024-06-12 03:06 pmWSW 6.0 9.9----29.91- 81.9- 48.0---
2024-06-12 03:00 pm SW 6.0 11.1----29.91-0.04 82.9- 49.3---
2024-06-12 02:54 pm SW 5.1 11.1----29.91- 82.6- 48.9---
2024-06-12 02:48 pmWSW 6.0 9.9----29.91-------
2024-06-12 02:42 pmSSW 5.1 8.0----29.92-------
2024-06-12 02:36 pmSSW 5.1 8.9----29.92-------
2024-06-12 02:30 pm W 6.0 8.9----29.92- 81.3- 47.5---
2024-06-12 02:24 pmWSW 4.1 8.9----29.92- 80.1- 46.9---
2024-06-12 02:18 pm W 7.0 9.9----29.92-------
2024-06-12 02:12 pm W 8.9 12.0----29.93-------
2024-06-12 02:06 pmWSW 7.0 9.9----29.93-------
2024-06-12 02:00 pm W 7.0 9.9----29.93-0.03------
2024-06-12 01:54 pmWSW 4.1 8.0----29.93-------
2024-06-12 01:48 pmWSW 7.0 11.1----29.93-------
2024-06-12 01:42 pm W 8.0 12.0----29.93-------
2024-06-12 01:36 pmWSW 6.0 11.1----29.94-------
2024-06-12 01:30 pmWSW 8.0 12.0----29.94- 79.0- 44.4---
2024-06-12 01:24 pmWSW 9.9 13.0----29.94- 79.2- 44.2---
2024-06-12 01:18 pm W 8.9 14.0----29.94-------
2024-06-12 01:12 pmWSW 11.1 14.0----29.94-------
2024-06-12 01:06 pmWSW 6.0 12.0----29.94-------
2024-06-12 01:00 pm-------29.94-0.02 79.2- 46.6---
2024-06-12 12:54 pm-------29.94- 78.4- 45.0---
2024-06-12 12:48 pm W 8.9 13.0----29.94-------
2024-06-12 12:42 pmWSW 8.0 14.0----29.94-------
2024-06-12 12:36 pmWSW 8.0 14.0----29.95-------
2024-06-12 12:30 pm SW 6.0 12.0----29.95- 79.7-----
2024-06-12 12:24 pmSSW 7.0 13.0----29.95- 80.2-----
2024-06-12 12:18 pmWSW 8.0 15.9----29.95-------
2024-06-12 12:12 pmWSW 7.0 13.0----29.95-------
2024-06-12 12:06 pm W 8.9 15.9----29.95-------
2024-06-12 12:00 pm-------29.95-0.02 79.0- 45.3---
2024-06-12 11:54 am-------29.95- 78.4- 46.2---
2024-06-12 11:48 am SW 5.1 12.0----29.95- 78.6- 46.6---
2024-06-12 11:42 amWSW 7.0 13.0----29.95- 77.5- 46.0---
2024-06-12 11:36 amSSW 7.0 13.0----29.95- 77.5- 47.5---
2024-06-12 11:30 am SW 6.0 12.0----29.96- 77.5- 48.2---
2024-06-12 11:24 am SW 7.0 12.0----29.96- 77.4- 48.0---
2024-06-12 11:18 am SW 5.1 12.0----29.96- 77.2- 47.3---
2024-06-12 11:12 am SW 7.0 11.1----29.96- 76.6- 47.1---
2024-06-12 11:06 am SW 8.0 14.0----29.96- 76.5- 46.0---
2024-06-12 11:00 amSSW 9.9 13.0----29.96+0.00------
2024-06-12 10:54 am SW 5.1 9.9----29.96-------
2024-06-12 10:48 am SW 4.1 8.9----29.96-------
2024-06-12 10:42 amWSW 6.0 8.0----29.96-------
2024-06-12 10:36 am SW 6.0 8.9----29.96-------
2024-06-12 10:30 am W 7.0 14.0----29.96- 75.6- 47.3---
2024-06-12 10:24 amWSW 8.9 13.0----29.96- 74.8- 44.8---
2024-06-12 10:18 amWSW 8.0 9.9----29.96-------
2024-06-12 10:12 am W 5.1 8.9----29.96-------
2024-06-12 10:06 am W 5.1 12.0----29.96-------
2024-06-12 10:00 am W 6.0 11.1----29.96+0.00 73.9- 46.0---
2024-06-12 09:54 amWSW 8.0 11.1----29.96- 73.6- 45.1---
2024-06-12 09:48 am SW 6.0 8.9----29.96-------
2024-06-12 09:42 am SW 4.1 9.9----29.96-------
2024-06-12 09:36 am SW 5.1 8.9----29.96-------
2024-06-12 09:30 am SW 5.1 8.0----29.97- 72.0- 50.0---
2024-06-12 09:24 am SW 4.1 7.0----29.97- 71.2- 50.2---
2024-06-12 09:18 am SW 5.1 7.0----29.97- 71.2- 50.7---
2024-06-12 09:12 am SW 5.1 7.0----29.97- 70.9- 50.7---
2024-06-12 09:06 am SW 5.1 7.0----29.97- 71.1- 51.4---
2024-06-12 09:00 am SW 5.1 7.0----29.97+0.02 70.2- 50.9---
2024-06-12 08:54 am SW 2.9 6.0----29.97- 69.6- 51.6---
2024-06-12 08:48 am SW 2.9 6.0----29.97- 69.6- 52.0---
2024-06-12 08:42 am SW 2.9 4.1----29.97- 69.1- 52.5---
2024-06-12 08:36 am W 1.9 5.1----29.97- 67.6- 52.2---
2024-06-12 08:30 am SW 2.9 4.1----29.97- 66.9- 52.0---
2024-06-12 08:24 amWSW 1.9 5.1----29.97- 67.1- 52.2---
2024-06-12 08:18 am SW 1.9 6.0----29.97- 66.6- 52.2---
2024-06-12 08:12 am SW 4.1 6.0----29.97- 65.1- 51.1---
2024-06-12 08:06 am SW 1.9 5.1----29.96- 64.9- 51.1---
2024-06-12 08:00 amWSW 1.9 4.1----29.96+0.03 64.0- 50.9---
2024-06-12 07:54 amWSW 2.9 6.0----29.96- 63.9- 50.7---
2024-06-12 07:48 amWSW 2.9 4.1----29.96-------
2024-06-12 07:42 amWSW 1.9 2.9----29.96-------
2024-06-12 07:36 amWSW 2.9 5.1----29.96-------
2024-06-12 07:30 amWSW 4.1 5.1----29.96- 63.1- 50.5---
2024-06-12 07:24 amWSW 2.9 6.0----29.96- 63.0- 50.2---
2024-06-12 07:18 amWSW 5.1 7.0----29.96- 63.0- 50.0---
2024-06-12 07:12 amWSW 5.1 7.0----29.96- 62.8- 49.8---
2024-06-12 07:06 amWSW 2.9 7.0----29.96- 62.6- 50.2---
2024-06-12 07:00 amWSW 1.9 4.1----29.96+0.03 62.4- 50.5---
2024-06-12 06:54 am SW 2.9 6.0----29.96- 62.2- 50.9---
2024-06-12 06:48 amSSW 4.1 6.0----29.96-------
2024-06-12 06:42 am SW 2.9 6.0----29.96-------
2024-06-12 06:36 am SW 4.1 6.0----29.96-------
2024-06-12 06:30 amSSW 5.1 6.0----29.95- 61.7- 50.0---
2024-06-12 06:24 amSSW 4.1 7.0----29.95- 61.7- 49.8---
2024-06-12 06:18 amSSW 4.1 7.0----29.95-------
2024-06-12 06:12 am SW 5.1 8.0----29.95-------
2024-06-12 06:06 amSSW 4.1 8.9----29.95-------
2024-06-12 06:00 am SW 5.1 8.0----29.95+0.01 61.5- 49.1---
2024-06-12 05:54 amSSW 6.0 9.9----29.94- 61.3- 48.7---
2024-06-12 05:48 amSSW 7.0 8.9----29.94-------
2024-06-12 05:42 amSSW 6.0 8.9----29.94-------
2024-06-12 05:36 amSSW 4.1 6.0----29.94-------
2024-06-12 05:30 amSSW 4.1 6.0----29.94- 60.6- 48.4---
2024-06-12 05:24 am SW 4.1 6.0----29.94- 60.4- 48.0---
2024-06-12 05:18 am SW 2.9 4.1----29.93- 60.6- 47.8---
2024-06-12 05:12 amSSW 5.1 6.0----29.93- 60.8- 47.7---
2024-06-12 05:06 am S 4.1 5.1----29.93- 60.8- 47.7---
2024-06-12 05:00 am S 2.9 6.0----29.93-0.01------
2024-06-12 04:54 am S 1.9 6.0----29.93-------
2024-06-12 04:48 amSSW 4.1 7.0----29.93-------
2024-06-12 04:42 amSSW 2.9 5.1----29.93-------
2024-06-12 04:36 am S 2.9 5.1----29.93-------
2024-06-12 04:30 am S 4.1 5.1----29.93- 60.4- 47.1---
2024-06-12 04:24 am S 4.1 4.1----29.92- 60.6- 48.0---
2024-06-12 04:18 am S 2.9 4.1----29.93- 60.8- 47.7---
2024-06-12 04:12 amSSW 1.0 4.1----29.93- 60.8- 47.8---
2024-06-12 04:06 amSSW 1.9 5.1----29.93- 60.8- 47.8---
2024-06-12 04:00 am S 2.9 6.0----29.93-0.02------
2024-06-12 03:54 amSSW 1.9 6.0----29.93-------
2024-06-12 03:48 am S 1.9 5.1----29.93- 60.6- 48.0---
2024-06-12 03:42 am S 4.1 5.1----29.93- 60.4- 47.1---
2024-06-12 03:36 amSSW 1.9 5.1----29.93- 60.3- 46.8---
2024-06-12 03:30 am S 2.9 7.0----29.93- 60.3- 46.4---
2024-06-12 03:24 am S 5.1 8.0----29.93- 60.3- 47.1---
2024-06-12 03:18 am S 5.1 7.0----29.93- 60.3- 46.4---
2024-06-12 03:12 am S 4.1 8.0----29.93- 60.4- 46.2---
2024-06-12 03:06 am S 4.1 6.0----29.93- 60.4- 46.8---
2024-06-12 03:00 amSSE 4.1 6.0----29.93-0.01 60.6- 46.4---
2024-06-12 02:54 am S 4.1 6.0----29.94- 60.8- 47.1---